KB3KAV Weather Reports


Display with metric or nautical units.
time (UTC)temp
F
wind
direction
speed
MPH
gust
MPH
rain 1hr
in
rain 24hr
in
rain mn
in
humidity
%
barometer
mb
20260508171339 54 319 6.0 7.0 0.00 0.09 0.09 60 1041.2
20260508170334 53 48 3.0 3.0 0.00 0.09 0.09 66 1041.3
20260508165334 52 172 2.0 2.0 0.00 0.09 0.09 65 1041.3
20260508164332 52 177 4.0 5.0 0.00 0.09 0.09 66 1041.6
20260508163327 51 331 3.0 3.0 0.00 0.09 0.09 69 1041.6
20260508162325 51 82 3.0 3.0 0.00 0.09 0.09 69 1041.8
20260508161326 52 357 4.0 5.0 0.00 0.09 0.09 68 1041.7
20260508160322 52 0 7.0 9.0 0.00 0.09 0.09 67 1041.4
20260508155321 52 308 6.0 7.0 0.00 0.09 0.09 67 1041.7
20260508154315 51 27 7.0 10.0 0.00 0.09 0.09 67 1041.8
20260508153314 51 5 5.0 6.0 0.00 0.09 0.09 71 1041.6
20260508152312 50 41 2.0 2.0 0.00 0.09 0.09 73 1041.6
20260508151311 49 156 3.0 3.0 0.00 0.09 0.09 73 1041.7
20260508150310 50 34 3.0 5.0 0.00 0.09 0.09 74 1041.7
20260508145308 49 88 2.0 2.0 0.00 0.09 0.09 81 1042.0
20260508144303 48 58 2.0 2.0 0.00 0.09 0.09 82 1041.7
20260508143303 46 90 0.0 0.0 0.00 0.09 0.09 86 1042.3
20260508142306 46 90 1.0 1.0 0.07 0.09 0.09 89 1042.0
20260508141302 44 69 1.0 1.0 0.00 0.08 0.08 92 1041.9
20260508140302 44 88 1.0 1.0 0.00 0.08 0.08 94 1041.9
20260508135300 43 104 0.0 1.0 0.00 0.08 0.08 95 1042.3
20260508134259 42 110 1.0 1.0 0.00 0.08 0.08 95 1042.5
20260508133259 42 137 2.0 3.0 0.00 0.08 0.08 95 1042.7
20260508132300 42 58 4.0 5.0 0.00 0.08 0.08 95 1042.8
20260508131257 42 80 1.0 2.0 0.00 0.08 0.08 95 1042.5
20260508130258 42 105 2.0 2.0 0.00 0.08 0.08 95 1042.5
20260508125255 41 68 1.0 1.0 0.00 0.08 0.08 95 1042.4
20260508124250 42 88 0.0 1.0 0.00 0.08 0.08 95 1042.5
20260508123246 42 92 1.0 2.0 0.00 0.08 0.08 95 1042.3
20260508122245 42 96 0.0 0.0 0.00 0.08 0.08 95 1042.3
20260508121241 40 99 0.0 0.0 0.00 0.08 0.08 95 1042.2
20260508120236 39 97 0.0 0.0 0.00 0.08 0.08 95 1042.1
20260508115231 39 103 0.0 0.0 0.00 0.08 0.08 95 1042.0
20260508114230 38 89 0.0 0.0 0.00 0.08 0.08 95 1042.2
20260508113225 38 101 0.0 0.0 0.00 0.08 0.08 95 1042.3
20260508112224 37 96 0.0 0.0 0.00 0.08 0.08 95 1042.1
20260508111218 37 97 0.0 0.0 0.00 0.08 0.08 95 1042.3
20260508110218 37 111 0.0 0.0 0.00 0.08 0.08 95 1042.3
20260508105215 37 79 0.0 0.0 0.00 0.08 0.08 95 1042.2
20260508104215 37 85 0.0 0.0 0.00 0.08 0.08 95 1042.2
20260508103215 37 77 1.0 1.0 0.00 0.08 0.08 95 1041.9
20260508102210 37 88 0.0 0.0 0.00 0.08 0.08 95 1042.0
20260508101205 37 92 0.0 0.0 0.00 0.08 0.08 95 1042.0
20260508100200 36 94 0.0 0.0 0.00 0.08 0.08 95 1041.9
20260508095159 37 76 0.0 0.0 0.00 0.08 0.08 95 1042.0
20260508094158 36 82 0.0 0.0 0.00 0.08 0.08 95 1042.0
20260508093153 37 93 0.0 0.0 0.00 0.08 0.08 95 1042.0
20260508092149 37 95 0.0 0.0 0.00 0.08 0.08 95 1041.7
20260508091149 37 90 0.0 0.0 0.00 0.08 0.08 95 1041.9
20260508090143 37 98 0.0 0.0 0.00 0.08 0.08 95 1042.0
20260508085143 37 100 0.0 0.0 0.00 0.08 0.08 95 1041.9
20260508084142 37 100 0.0 0.0 0.00 0.08 0.08 95 1041.8
20260508083137 37 91 0.0 0.0 0.00 0.08 0.08 95 1041.6
20260508082135 37 81 0.0 0.0 0.00 0.08 0.08 95 1041.5
20260508081135 37 90 1.0 1.0 0.00 0.08 0.08 95 1041.4
20260508080131 38 102 0.0 0.0 0.00 0.08 0.08 95 1041.4
20260508075130 38 96 1.0 1.0 0.00 0.08 0.08 95 1041.6
20260508074124 38 99 0.0 0.0 0.00 0.08 0.08 95 1041.7
20260508073120 39 77 0.0 0.0 0.00 0.08 0.08 95 1041.5
20260508072118 39 81 0.0 0.0 0.00 0.08 0.08 95 1041.5
20260508071114 39 81 0.0 0.0 0.00 0.08 0.08 95 1041.6
20260508070109 40 85 0.0 0.0 0.00 0.08 0.08 95 1041.6
20260508065110 40 83 0.0 0.0 0.00 0.08 0.08 95 1041.4
20260508064105 40 88 0.0 0.0 0.00 0.08 0.08 95 1041.3
20260508063100 40 81 0.0 0.0 0.00 0.08 0.08 95 1041.6
20260508062100 40 79 0.0 0.0 0.00 0.08 0.08 95 1041.4
20260508061055 40 83 0.0 0.0 0.00 0.08 0.08 95 1041.5
20260508060055 41 96 0.0 0.0 0.00 0.08 0.08 95 1041.4
20260508055053 41 96 0.0 0.0 0.00 0.08 0.08 95 1041.4
20260508054053 42 95 0.0 1.0 0.00 0.08 0.08 95 1041.4
20260508053048 42 96 0.0 0.0 0.00 0.08 0.08 94 1041.3
20260508052047 42 94 0.0 0.0 0.00 0.08 0.08 94 1041.6
20260508051044 42 98 0.0 0.0 0.00 0.08 0.08 93 1041.4
20260508050044 43 84 0.0 0.0 0.00 0.08 0.08 93 1041.3
20260508045044 43 105 0.0 1.0 0.12 0.08 0.08 92 1041.0
20260508044042 43 94 1.0 1.0 0.00 0.06 0.06 92 1041.4
20260508043037 43 92 0.0 0.0 0.00 0.06 0.06 91 1041.5
20260508042037 44 99 4.0 5.0 0.12 0.06 0.06 91 1041.3
20260508041035 44 91 2.0 2.0 0.24 0.04 0.04 92 1041.2
20260508040036 45 48 2.0 3.0 0.00 0.02 0.02 92 1041.1
20260508035035 45 94 0.0 0.0 0.00 0.02 0.02 91 1040.5
20260508034035 45 88 0.0 0.0 0.00 0.02 0.02 90 1040.1
20260508033031 45 83 1.0 1.0 0.07 0.02 0.02 88 1040.0
20260508032030 47 85 0.0 1.0 0.12 0.02 0.02 85 1039.8
20260508031028 46 83 1.0 2.0 0.00 0.00 0.00 82 1040.3
20260508030023 46 85 0.0 0.0 0.00 0.00 0.00 81 1039.8
20260508025022 46 120 0.0 0.0 0.00 0.00 0.00 80 1039.2
20260508024021 46 85 0.0 0.0 0.00 0.00 0.00 79 1039.3
20260508023015 46 85 0.0 0.0 0.00 0.00 0.00 79 1039.1
20260508022013 45 92 0.0 0.0 0.00 0.00 0.00 80 1038.8
20260508021010 45 96 0.0 0.0 0.00 0.00 0.00 79 1038.8
20260508020006 46 97 0.0 0.0 0.00 0.00 0.00 79 1038.7
20260508015006 46 97 0.0 0.0 0.00 0.00 0.00 77 1039.0
20260508014004 46 96 0.0 0.0 0.00 0.00 0.00 77 1038.8
20260508013004 46 96 0.0 0.0 0.00 0.00 0.00 76 1038.5
20260508012004 47 96 0.0 0.0 0.00 0.00 0.00 74 1038.6
20260508010959 48 95 0.0 0.0 0.00 0.00 0.00 72 1038.3
20260508005959 48 95 0.0 0.0 0.00 0.00 0.00 71 1038.0
20260508004959 48 97 0.0 0.0 0.00 0.00 0.00 71 1038.0
20260508003957 49 97 0.0 0.0 0.00 0.00 0.00 69 1038.1
20260508002957 49 98 0.0 0.0 0.00 0.00 0.00 68 1038.0
20260508001955 50 98 0.0 0.0 0.00 0.00 0.00 66 1038.3
20260508000954 51 97 0.0 0.0 0.00 0.00 0.00 64 1037.6
20260507235953 52 97 0.0 0.0 0.00 0.00 0.00 63 1037.7
20260507234954 53 97 0.0 0.0 0.00 0.00 0.00 64 1037.5
20260507233953 53 98 0.0 0.0 0.00 0.00 0.00 59 1037.6
20260507232948 55 104 0.0 0.0 0.00 0.00 0.00 57 1037.4
20260507231947 55 104 0.0 0.0 0.00 0.00 0.00 52 1037.3
20260507230945 56 101 2.0 2.0 0.00 0.00 0.00 45 1037.4
20260507225943 57 106 0.0 0.0 0.00 0.00 0.00 46 1037.3
20260507224942 57 121 6.0 7.0 0.00 0.00 0.00 44 1037.3
20260507223941 57 121 2.0 2.0 0.00 0.00 0.00 44 1037.1
20260507222940 58 113 4.0 5.0 0.00 0.00 0.00 42 1037.4
20260507221939 58 126 1.0 2.0 0.00 0.00 0.00 42 1037.2
20260507220938 58 123 3.0 3.0 0.00 0.00 0.00 43 1037.0
20260507215932 59 93 1.0 1.0 0.00 0.00 0.00 40 1036.9
20260507214932 59 151 4.0 5.0 0.00 0.00 0.00 40 1037.3
20260507213931 60 51 4.0 6.0 0.00 0.00 0.00 40 1037.2
20260507212931 58 136 2.0 2.0 0.00 0.00 0.00 41 1037.2
20260507211929 58 108 0.0 1.0 0.00 0.00 0.00 41 1037.5
20260507210929 58 125 8.0 10.0 0.00 0.00 0.00 41 1037.3
20260507205928 58 164 4.0 6.0 0.00 0.00 0.00 41 1037.5
20260507204928 59 162 3.0 3.0 0.00 0.00 0.00 39 1037.2
20260507203927 59 109 3.0 3.0 0.00 0.00 0.00 39 1037.0
20260507202922 60 169 6.0 8.0 0.00 0.00 0.00 37 1036.9
20260507201920 59 125 2.0 2.0 0.00 0.00 0.00 40 1037.2
20260507200918 58 120 1.0 2.0 0.00 0.00 0.00 41 1037.1
20260507195916 59 107 1.0 1.0 0.00 0.00 0.00 41 1037.5
20260507194910 59 106 4.0 5.0 0.00 0.00 0.00 37 1037.2
20260507193908 59 126 3.0 3.0 0.00 0.00 0.00 36 1037.5
20260507192908 60 266 6.0 8.0 0.00 0.00 0.00 34 1037.6
20260507191907 59 118 0.0 0.0 0.00 0.00 0.00 35 1037.5
20260507190905 59 308 3.0 5.0 0.00 0.00 0.00 36 1037.6
20260507185902 60 88 0.0 1.0 0.00 0.00 0.00 36 1037.6
20260507184901 61 91 0.0 1.0 0.00 0.00 0.00 34 1037.7
20260507183901 60 207 4.0 5.0 0.00 0.00 0.00 40 1038.0
20260507182856 58 91 0.0 0.0 0.00 0.00 0.00 37 1038.1
20260507181854 59 130 2.0 2.0 0.00 0.00 0.00 37 1038.4
20260507180853 59 65 3.0 7.0 0.00 0.00 0.00 37 1038.4
20260507175851 59 122 2.0 2.0 0.00 0.00 0.00 37 1038.4
20260507174846 58 70 2.0 2.0 0.00 0.00 0.00 37 1038.6
20260507173846 59 113 3.0 3.0 0.00 0.00 0.00 38 1038.5
20260507172845 59 265 4.0 5.0 0.00 0.00 0.00 38 1038.8